Location: De Har
(53.3413°N, 6.6858°E)
Time: 16:47:00
(UTC+00:00)

Cosmos 1707 - Pass Details

Date: 22 April 2026
Orbit: 345 x 348 km, 82.5° (Epoch: 9 May)

Event Time Altitude Azimuth Distance (km) Brightness Sun altitude
Exits shadow 02:05:44 24° 292° (WNW) 803 3.5 -16.7°
Drops below altitude 10° 02:08:07 10° 347° (NNW) 1,350 5.3 -16.5°
Sets 02:10:19 0° 2° (N) 2,199 6.8 -16.3°
